Theta_e
340 341 342 342 342 345 347 347 348 350 353 356 357 356 359 358 359 359 363 362 362 362 361 361 359 360 362 360 359 364 364 365 364 364 364 365 370 371 373 369 370 370 372 372 369 369 371 366 362 360 361 359 365 361 353 351 355 350 352 359 353 352 349 354 352 351 351 347 349 347 352 355 353 348 352 351 343 350 349 358 358 355 352 356 353
339 341 341 340 342 344 345 349 350 350 353 357 356 359 360 360 359 360 362 363 362 363 364 364 363 360 360 360 361 360 364 362 362 364 359 362 373 372 371 371 369 370 370 370 369 367 364 363 361 360 364 358 365 359 356 352 350 349 357 357 353 353 349 345 348 350 345 346 342 345 350 348 352 351 344 347 346 341 343 346 347 350 341 343 346
336 338 340 340 341 344 346 348 349 349 351 355 358 360 361 360 361 363 361 362 361 364 365 364 364 365 362 362 361 360 367 366 362 362 365 359 366 370 371 371 369 368 371 371 366 365 364 364 361 363 361 357 359 361 358 355 358 351 354 350 351 353 351 352 351 351 342 342 346 344 342 336 347 350 345 341 341 337 344 338 338 338 339 344 354
334 336 337 338 341 343 346 348 350 351 353 353 356 359 360 361 363 364 363 363 362 364 365 366 367 368 368 367 364 363 361 364 368 368 368 364 363 364 370 372 369 369 368 368 367 365 364 362 362 362 362 359 364 356 359 355 360 360 351 356 354 342 347 348 350 351 348 343 336 337 337 336 333 337 343 343 338 337 336 336 339 337 338 344 347
335 335 339 338 340 340 347 349 349 349 352 352 354 357 358 361 362 365 365 364 364 365 364 367 367 366 367 367 367 366 365 364 363 363 362 363 359 360 363 367 369 367 367 367 365 364 364 364 364 360 359 359 360 359 357 351 351 350 352 355 350 348 341 348 350 352 349 352 345 338 336 333 331 336 331 346 337 338 334 334 340 336 335 346 346
339 338 339 339 340 343 349 350 349 349 352 353 354 357 361 362 363 365 366 365 364 365 365 366 365 363 363 360 358 360 359 358 356 356 356 356 353 355 359 364 366 368 368 366 363 362 363 364 364 359 359 357 357 354 354 359 354 354 348 349 351 354 349 346 346 352 351 354 348 347 348 335 334 338 338 334 348 341 344 335 340 331 339 345 351
338 339 339 339 341 343 348 349 349 349 352 354 355 357 361 363 364 365 365 366 365 365 366 366 365 365 363 361 359 359 359 360 364 360 361 362 360 359 363 365 368 365 363 363 363 362 362 364 363 362 360 358 355 363 364 352 348 346 351 352 353 355 352 347 348 342 355 352 347 343 343 343 344 340 334 338 335 341 344 337 330 332 335 342 345
337 340 341 342 343 341 344 350 350 349 352 354 354 357 360 364 364 364 365 366 366 366 365 366 365 364 364 362 362 362 359 361 363 366 367 369 361 358 363 363 366 366 364 365 364 361 362 362 362 359 360 353 354 354 355 350 357 351 355 354 354 355 353 350 343 343 345 344 348 345 342 347 351 346 344 338 336 331 341 339 333 332 332 331 329
338 339 340 341 343 344 347 350 351 351 352 354 355 357 360 364 365 365 365 367 367 368 366 366 367 366 365 365 363 363 363 364 365 365 364 365 363 366 364 363 366 368 367 363 363 361 362 361 360 358 358 356 353 353 352 358 354 354 355 353 352 353 356 355 350 349 343 341 346 346 351 349 351 345 343 343 341 333 333 335 336 339 336 335 333
339 339 342 343 345 345 346 350 351 351 353 357 358 359 361 364 365 366 366 366 368 369 368 367 367 367 366 366 364 363 363 364 363 363 365 366 364 365 367 366 364 366 367 364 363 362 357 358 356 354 355 350 353 351 353 352 350 350 353 354 355 352 358 357 350 354 344 350 346 344 343 348 345 345 341 340 340 344 331 330 331 336 337 338 345
339 340 343 346 346 348 347 348 353 353 354 357 357 359 360 362 365 366 366 366 368 368 368 368 367 368 366 366 365 363 364 364 362 363 363 365 363 362 365 366 364 363 360 364 362 359 359 355 351 353 354 354 357 352 356 348 347 350 354 355 354 352 350 352 352 350 355 347 347 344 343 340 341 336 337 338 337 338 335 329 328 325 332 336 343
340 340 341 346 348 348 348 348 352 354 355 356 355 359 360 363 365 366 367 367 368 368 368 368 367 368 367 367 365 365 364 362 361 360 361 362 362 362 365 366 365 363 363 358 356 353 359 355 356 355 353 355 354 355 357 357 348 348 354 354 354 354 352 352 349 348 347 348 348 345 343 343 347 343 340 346 341 338 334 331 332 336 340 336 341
340 343 345 346 346 346 347 349 353 355 354 356 354 355 360 364 365 365 366 367 367 368 367 367 368 368 367 366 366 366 366 364 363 361 363 363 363 363 363 362 362 361 361 358 354 354 356 355 354 356 353 353 354 354 356 355 357 354 351 351 351 351 353 351 350 347 349 349 345 347 344 348 349 349 348 340 348 338 339 334 331 333 332 334 342
337 340 341 344 346 346 347 349 351 354 354 355 355 355 359 362 365 365 366 368 367 367 367 367 368 368 368 367 367 367 366 366 365 362 363 365 365 363 361 360 360 359 354 356 355 353 353 355 354 355 356 355 357 355 354 357 353 357 350 350 349 352 351 351 351 348 350 347 351 347 346 350 345 348 344 345 339 339 338 333 335 335 334 331 339
340 341 341 342 346 348 347 349 351 353 353 352 354 356 359 361 364 365 367 368 368 367 367 367 367 368 368 367 368 369 367 366 366 365 365 365 364 364 363 361 360 358 356 357 360 356 354 354 353 352 354 354 355 354 353 353 353 354 353 349 350 352 351 351 351 348 346 346 348 348 347 344 350 349 344 342 341 339 339 339 336 330 329 330 334
335 341 342 344 347 351 348 348 351 352 353 352 353 356 358 360 365 366 367 368 368 367 367 367 367 368 368 367 368 368 367 367 366 366 367 366 365 364 364 363 360 360 360 357 358 358 355 353 353 351 353 353 354 354 353 351 352 349 351 351 349 349 349 348 350 348 345 348 346 348 347 342 347 346 342 349 349 348 344 348 341 336 330 325 331
335 338 341 344 343 348 349 348 350 351 351 351 353 357 359 360 363 366 368 369 368 367 367 368 368 367 367 367 367 367 367 366 365 365 362 365 366 365 364 363 362 362 358 359 356 358 356 354 351 348 352 353 353 353 352 352 351 349 349 350 347 346 350 348 349 348 349 346 347 345 346 345 347 351 350 345 347 347 347 346 343 339 335 330 327
339 341 343 344 345 349 348 347 346 349 350 353 355 357 360 361 363 365 367 368 369 368 367 368 368 367 367 367 367 367 366 365 365 365 364 364 365 365 364 363 361 361 357 356 356 355 356 356 352 350 350 350 351 350 351 351 351 348 348 349 349 349 351 349 349 349 347 348 349 347 345 345 346 347 348 348 347 347 346 344 344 343 341 333 332
339 340 343 344 346 350 349 346 345 348 353 355 357 357 359 361 363 364 365 368 369 367 368 369 369 367 367 367 367 367 366 366 366 366 365 365 362 364 362 362 362 361 360 358 356 354 354 352 353 351 350 351 351 349 350 349 349 347 346 347 348 349 349 349 348 347 347 348 347 344 347 347 349 346 345 345 345 345 345 346 345 344 342 339 335
337 338 341 344 344 345 347 346 344 346 352 354 354 354 354 357 362 363 366 369 370 370 369 369 369 367 368 369 369 368 368 366 366 366 364 363 364 363 362 362 361 360 359 358 356 353 352 350 350 348 348 349 350 349 348 349 349 348 347 345 345 347 346 347 345 347 345 346 345 344 346 346 349 348 346 346 347 346 346 346 345 343 342 341 340
336 337 337 341 344 345 347 347 346 347 352 353 353 352 352 354 357 361 365 366 368 369 369 368 368 368 369 369 369 369 368 367 366 365 364 364 364 364 363 362 363 359 357 356 355 353 351 350 348 349 348 348 349 349 349 350 349 347 349 347 347 346 344 345 346 346 345 346 347 346 346 347 348 345 346 345 344 345 345 345 346 345 342 341 339
341 341 337 338 344 347 347 349 349 346 347 350 353 353 352 351 355 358 362 365 366 368 369 368 369 369 368 369 369 369 369 368 366 365 364 364 364 364 365 365 361 360 357 355 355 354 353 351 348 349 349 349 350 350 349 349 348 347 346 346 345 346 344 343 344 343 345 346 348 345 344 345 347 345 346 343 343 341 342 340 341 340 339 339 341
338 338 338 341 345 348 350 350 351 349 350 350 351 351 351 351 353 357 361 364 367 368 369 369 369 368 368 369 370 369 368 367 366 365 362 361 364 365 366 364 361 359 358 356 354 354 353 352 349 349 349 349 350 350 348 349 347 347 345 344 343 345 344 343 342 343 343 346 344 344 343 343 344 343 344 343 343 342 342 341 340 341 339 338 340
336 337 335 340 342 346 352 353 352 352 353 353 354 354 353 353 354 356 360 364 366 367 368 370 369 368 368 368 369 370 368 365 363 364 361 360 361 364 365 364 362 359 357 357 356 354 354 352 350 349 349 349 349 348 348 348 347 347 346 344 343 343 345 343 342 342 342 343 343 343 342 341 342 342 343 344 344 343 343 344 342 341 341 340 340
338 340 342 345 343 345 353 355 353 353 354 356 357 357 356 356 355 356 359 363 365 365 368 368 367 365 366 368 368 368 368 367 364 364 363 360 361 362 363 362 361 358 358 357 356 355 354 352 350 350 348 348 349 348 347 345 347 347 346 344 344 344 343 343 343 343 345 344 343 342 342 343 344 341 341 341 342 342 342 342 341 341 340 340 339
347 349 347 345 346 352 357 358 357 354 355 358 359 359 358 357 356 356 359 361 361 361 365 366 367 367 367 367 367 367 367 366 365 363 363 361 360 362 362 361 360 359 358 356 356 354 352 350 349 349 348 347 348 348 347 345 346 346 345 344 344 345 343 344 344 344 344 345 344 345 344 345 343 342 341 342 343 342 342 341 340 341 341 340 339
349 351 351 352 356 359 357 359 359 356 355 358 358 357 356 357 356 355 357 358 361 360 363 368 368 364 366 367 367 367 367 367 366 365 365 363 360 360 361 360 360 359 358 355 354 353 351 350 349 349 349 346 346 348 347 346 345 345 345 344 343 344 344 343 344 343 343 344 344 344 344 344 343 343 342 341 342 343 342 341 342 341 340 339 338
354 354 355 354 357 364 361 360 361 359 357 357 358 356 356 356 354 353 354 355 357 358 362 367 367 365 366 367 368 368 368 368 367 367 366 364 361 361 362 363 361 360 358 356 353 352 350 350 348 348 348 346 346 347 348 347 346 345 345 345 344 343 342 342 343 344 343 342 343 343 342 343 343 344 343 343 342 341 343 341 342 342 340 339 337
351 355 355 355 357 366 366 362 362 362 359 359 358 357 357 357 354 353 352 353 356 358 360 365 367 366 366 368 369 369 369 369 369 368 366 365 364 363 364 364 362 360 358 356 355 351 349 348 348 348 346 346 346 346 347 346 345 345 344 343 344 344 342 342 341 341 342 342 342 342 341 341 344 347 342 341 341 342 342 341 342 342 341 339 337
349 354 356 358 357 362 368 365 365 363 361 359 359 359 358 357 355 354 353 353 358 359 360 364 367 367 369 370 371 371 370 371 369 367 367 366 365 364 363 363 361 359 358 356 354 351 349 347 347 347 346 345 345 346 342 335 338 345 345 344 344 343 343 343 343 342 341 343 342 341 341 348 349 349 344 338 334 334 336 340 342 343 342 340 338
347 356 356 357 357 359 365 365 364 364 362 360 360 361 360 357 356 353 354 355 359 360 361 364 367 369 371 372 372 372 372 370 369 368 368 367 365 364 363 363 362 360 357 356 353 348 347 346 346 346 345 345 346 346 334 330 333 337 343 344 343 344 344 344 344 344 343 342 341 342 342 346 347 345 343 340 335 332 331 329 329 331 337 340 337
340 350 353 355 355 356 361 363 363 363 364 362 363 363 362 357 357 354 353 355 360 361 361 364 369 371 372 373 373 373 372 371 369 368 368 367 365 364 364 364 363 360 359 356 351 348 347 346 346 346 345 345 346 337 328 328 331 332 338 344 343 343 342 343 343 343 343 343 343 342 341 343 343 342 344 344 337 332 329 328 326 325 326 326 330
351 353 354 354 353 355 360 362 362 363 364 364 365 363 362 360 359 359 358 355 361 362 363 366 371 372 373 374 374 372 370 369 368 368 368 367 366 364 364 363 361 361 360 355 351 348 346 346 346 346 344 345 345 332 326 326 328 329 332 340 343 342 341 341 342 343 343 343 343 343 342 343 344 350 346 346 346 342 330 324 325 326 326 325 324
333 355 355 357 357 356 360 363 364 364 362 363 365 364 364 363 364 364 361 358 363 365 365 368 372 372 374 373 372 370 369 368 368 367 367 366 365 364 364 363 361 361 358 354 350 348 348 348 347 347 345 346 346 328 325 324 326 326 327 333 344 343 342 342 342 341 341 343 343 343 342 342 343 343 344 344 343 343 343 341 337 335 335 335 327
341 346 356 360 362 362 364 367 364 362 363 363 364 366 365 364 365 364 363 362 366 367 367 370 372 373 372 371 370 369 368 367 367 366 365 365 364 365 364 362 360 358 354 351 348 346 347 348 347 346 345 346 347 324 322 322 322 322 323 328 341 342 341 342 340 341 346 348 347 345 344 343 345 345 346 344 343 342 342 343 344 341 340 341 339
334 339 345 364 363 363 364 367 365 365 361 361 363 362 360 361 364 364 363 366 369 368 368 371 371 371 370 370 369 368 367 366 365 365 364 363 363 364 362 361 359 357 355 352 350 347 347 347 347 345 344 347 345 320 321 320 319 319 322 336 339 339 340 338 340 347 344 342 343 342 342 343 342 343 341 336 339 345 345 344 340 338 336 335 335
331 333 341 370 366 366 365 369 367 364 362 362 363 362 362 360 359 360 363 367 369 368 368 371 370 369 369 369 368 366 365 364 363 361 360 360 362 363 363 363 360 357 354 350 349 348 348 346 346 349 347 346 339 322 318 316 317 320 324 337 340 340 341 340 346 343 345 344 343 343 339 338 338 339 338 327 329 335 339 338 334 334 336 336 336
330 333 334 357 368 367 368 368 366 364 363 364 364 364 364 362 360 361 361 364 367 368 371 371 370 369 368 368 367 364 363 362 360 359 358 358 359 362 363 363 360 356 353 351 351 349 349 348 345 347 345 346 339 323 317 315 318 318 327 338 341 341 340 341 345 345 345 345 343 342 341 339 336 341 328 324 326 334 337 338 336 336 334 334 334
327 329 331 357 367 366 368 367 366 363 364 368 366 364 362 362 362 360 359 362 367 370 371 370 369 369 368 366 365 364 361 359 359 357 356 356 357 359 361 362 360 359 356 354 350 349 349 349 347 347 345 344 340 326 316 316 315 316 327 341 342 340 341 343 344 340 336 337 338 339 340 335 336 336 321 321 322 332 336 336 335 333 331 331 333
334 336 365 367 368 368 366 364 364 365 366 369 366 365 361 361 362 362 362 365 368 370 371 369 368 367 366 365 363 362 360 358 359 358 357 358 358 357 358 358 358 357 356 354 351 349 346 346 345 344 345 345 340 330 324 315 315 314 321 343 344 343 342 343 341 337 335 334 337 337 335 326 323 323 320 315 315 320 334 336 335 331 330 330 331
331 333 361 370 368 367 363 362 364 366 366 366 365 364 362 363 365 363 364 367 370 371 370 368 367 364 363 362 361 360 358 358 359 357 357 357 357 356 357 359 356 356 354 350 348 346 344 340 338 340 341 338 339 338 332 314 312 313 318 329 342 338 339 342 336 335 334 333 334 336 338 330 323 319 316 313 310 311 322 333 333 331 332 325 319
335 352 362 364 361 365 365 361 367 367 366 367 366 364 364 365 365 365 367 370 371 370 368 366 365 363 361 360 358 360 358 357 358 359 358 357 359 360 359 359 356 355 351 349 347 344 343 340 335 336 341 340 336 332 328 314 312 312 314 319 337 341 343 338 334 332 332 333 333 334 338 333 318 315 313 309 307 307 311 327 331 311 307 313 324
362 361 362 358 359 360 358 359 365 367 367 367 367 364 364 364 365 367 369 370 368 367 366 364 363 361 359 358 358 357 356 357 358 359 358 357 359 360 360 358 355 352 350 348 348 343 342 340 338 339 337 340 340 333 322 323 313 311 310 315 322 333 328 339 335 332 332 334 337 340 332 313 310 308 305 304 304 307 311 321 311 308 309 310 318
354 356 357 355 359 359 359 363 363 366 367 368 367 363 363 363 365 368 368 366 366 366 364 362 359 359 358 356 357 356 357 358 358 357 357 357 357 357 356 355 354 351 349 348 347 342 339 337 336 336 340 341 340 336 325 324 322 313 310 310 314 317 322 334 337 338 340 340 341 340 320 303 299 298 300 303 305 308 321 309 309 309 312 316 321
355 357 362 361 360 362 362 363 366 368 368 368 367 363 362 363 365 366 364 364 363 362 361 359 358 357 356 355 355 355 355 356 356 356 354 353 353 354 352 353 352 351 349 346 345 342 341 340 337 337 339 341 341 339 335 326 321 315 311 310 312 313 311 312 329 334 339 331 314 305 300 300 301 300 303 305 306 308 306 305 307 310 316 321 322
354 360 360 360 364 363 362 363 365 368 367 366 367 365 361 363 365 363 364 363 362 360 359 358 357 356 355 354 354 353 355 355 354 354 354 353 352 350 350 350 350 348 348 346 345 342 339 337 336 337 338 338 338 337 334 330 324 321 317 312 312 314 316 315 324 331 315 309 306 304 303 304 305 307 313 319 323 322 309 309 309 311 318 320 321
333 335 348 359 360 357 360 361 361 364 365 365 364 364 364 364 364 363 363 363 360 358 356 357 356 354 355 354 352 351 352 352 352 352 352 352 352 351 350 348 348 346 346 344 342 340 337 335 335 336 337 336 336 337 336 332 330 328 327 321 318 319 318 317 321 326 321 319 312 312 316 314 317 316 320 322 322 315 314 313 317 319 322 323 325
340 341 341 343 345 349 352 356 353 357 359 362 362 362 362 362 361 360 360 360 357 357 354 353 352 352 352 351 349 352 351 350 348 346 346 348 350 349 348 348 347 346 343 341 340 338 336 335 336 336 335 334 334 336 336 334 332 333 331 328 328 328 327 327 327 329 331 330 327 319 318 322 324 322 321 322 324 325 325 324 324 325 324 326 327
339 340 341 343 345 345 345 346 353 355 356 356 356 356 356 356 356 357 358 354 352 351 352 351 350 350 349 350 349 350 344 338 331 322 316 314 315 323 338 333 326 325 342 342 341 340 339 339 339 338 335 332 333 333 335 326 334 322 328 328 328 328 329 328 326 319 332 334 331 326 325 325 325 325 324 325 325 325 326 326 327 327 326 326 325
339 340 342 343 344 344 347 348 351 352 354 354 354 354 355 356 356 355 354 352 351 349 349 347 347 346 347 347 347 344 339 336 331 325 321 316 308 297 304 327 326 313 305 307 322 339 341 340 341 340 337 336 334 338 310 309 311 311 312 311 305 304 307 320 317 315 328 333 330 328 327 327 327 326 324 325 324 325 325 324 325 321 323 322 324
337 339 341 341 345 348 349 348 349 350 350 350 351 351 354 354 355 355 353 353 353 349 347 346 345 344 343 346 344 340 338 337 335 332 330 327 323 315 297 296 302 303 300 298 299 304 316 324 335 329 311 301 303 299 298 298 299 299 297 296 296 297 296 297 306 333 328 326 326 324 323 323 323 322 324 325 326 325 324 323 322 322 322 321 321
Wind_Speed
16 17 16 18 17 15 12 13 13 14 11 12 12 13 12 10 11 10 8 9 9 9 8 8 7 7 6 7 6 6 5 5 6 5 5 3 5 8 7 5 5 5 5 4 4 4 1 2 3 2 2 3 1 2 3 4 2 2 1 2 1 1 3 2 3 2 2 3 4 4 3 1 2 1 2 2 3 2 3 2 2 2 2 1 4
18 16 17 18 16 18 15 12 13 14 12 12 13 13 12 11 11 11 8 8 9 9 8 8 7 7 6 6 5 6 6 6 5 5 7 5 4 8 5 6 6 4 5 5 4 4 3 1 3 2 2 3 2 2 2 2 2 2 1 1 2 1 2 2 2 2 2 2 2 2 3 2 1 2 5 1 0 4 5 5 3 0 3 4 3
15 18 19 16 20 20 15 13 14 16 15 14 13 12 13 11 10 11 9 9 9 10 9 8 7 7 7 6 7 5 4 5 5 5 4 5 5 5 7 7 8 8 6 5 4 4 4 4 3 3 2 5 2 2 2 3 1 1 1 1 2 2 1 1 3 2 3 4 3 1 1 2 1 2 5 2 1 4 2 5 4 4 4 4 1
15 17 20 18 18 16 16 14 13 14 13 13 14 14 12 11 10 12 11 10 9 10 10 9 8 7 7 6 6 5 5 5 3 3 3 3 5 6 4 4 5 5 6 5 3 4 4 4 4 4 2 3 2 3 1 1 2 2 2 1 1 3 1 2 3 3 3 4 3 3 3 2 1 2 2 3 3 2 6 6 2 5 5 4 3
15 17 18 18 16 17 17 15 16 16 15 14 15 14 11 14 12 13 12 11 10 10 11 9 8 7 6 6 5 5 4 4 4 4 5 5 6 7 7 6 5 5 5 5 4 4 4 4 3 4 4 2 2 2 2 3 4 3 1 2 1 3 5 1 2 3 3 2 2 2 1 2 3 3 3 2 4 2 5 6 3 3 4 2 2
14 15 16 19 18 16 16 17 16 16 15 15 15 15 13 13 12 12 11 11 11 11 12 9 9 8 8 7 7 6 6 6 7 6 6 6 8 7 8 7 7 5 4 5 5 6 4 3 3 4 3 3 3 2 2 1 2 3 4 2 2 1 2 3 3 1 2 1 1 3 1 2 3 4 3 1 2 5 2 3 3 4 4 2 2
15 15 15 19 17 17 16 17 17 17 15 15 15 15 14 14 13 13 11 10 11 11 12 10 9 8 9 9 8 7 7 6 5 6 5 5 5 5 5 8 7 6 5 5 4 7 5 3 3 2 3 5 3 1 0 2 3 4 3 1 3 2 2 2 1 2 1 2 0 0 3 2 1 2 2 2 1 3 3 1 4 6 5 2 0
15 16 16 16 17 18 18 18 17 18 16 15 15 14 15 15 15 14 11 11 10 10 12 11 10 10 9 9 8 8 8 7 7 5 4 4 6 7 5 6 6 5 5 6 5 7 6 5 4 3 2 5 4 3 3 3 1 1 3 4 3 2 2 2 3 1 0 2 2 3 4 1 0 0 2 2 1 1 1 3 4 7 5 7 6
17 17 18 17 16 19 16 17 18 17 16 15 15 14 15 14 15 14 13 12 11 12 12 12 10 10 10 9 8 7 7 6 6 5 6 6 5 4 7 7 6 5 4 6 5 7 6 5 4 3 3 2 5 4 4 1 2 2 2 3 1 1 2 2 1 2 3 4 2 2 1 1 1 1 2 3 0 1 2 1 2 1 3 2 4
16 17 16 16 15 17 18 16 18 17 15 14 14 14 14 13 15 16 14 12 12 13 13 13 12 10 10 10 10 8 7 6 6 7 6 6 4 4 5 7 6 6 4 7 7 4 6 4 4 4 4 3 5 4 3 5 2 1 3 2 2 2 1 1 2 2 4 2 3 1 2 1 1 2 0 2 1 1 1 3 3 2 1 2 0
12 13 15 16 16 14 17 18 17 17 14 15 15 15 15 15 15 16 16 13 13 14 14 14 13 11 10 11 11 10 10 8 7 7 7 6 6 5 5 6 7 7 6 4 6 4 5 6 5 5 4 4 3 3 2 6 4 3 3 2 2 2 3 2 1 2 2 1 1 1 1 3 2 2 2 2 2 1 2 4 4 5 1 1 1
14 14 13 15 13 14 16 17 17 18 15 16 16 15 15 15 15 17 16 14 13 14 14 14 13 12 11 12 12 10 10 8 9 8 9 8 7 7 6 6 6 7 6 7 6 8 5 6 5 6 5 5 5 3 2 1 5 6 3 4 3 2 3 2 2 2 2 3 2 3 2 2 1 0 3 2 2 1 2 3 4 3 2 2 1
12 10 9 13 15 17 17 16 16 18 17 16 18 18 16 16 17 18 17 16 14 15 15 15 14 13 12 12 11 10 10 9 9 8 8 8 8 7 8 7 7 6 5 7 7 8 7 7 5 5 6 5 6 5 3 4 2 5 5 6 5 4 2 2 2 3 2 2 3 3 4 1 1 2 2 3 2 4 1 1 4 3 2 3 1
15 15 14 13 15 16 16 16 17 17 18 16 17 16 14 15 17 18 18 17 15 15 15 15 15 13 12 11 11 10 10 10 8 8 8 8 8 8 8 8 8 7 8 7 9 8 8 7 6 5 6 5 4 5 5 3 3 2 5 4 4 3 4 3 3 4 3 3 1 3 2 1 2 2 3 1 3 0 2 3 1 2 2 3 2
12 15 16 16 15 17 16 16 17 17 19 19 16 15 14 15 17 18 17 17 16 16 15 16 14 14 12 11 11 10 10 10 8 8 8 9 9 9 8 8 8 7 8 6 5 8 9 8 7 6 6 6 4 5 5 5 3 2 3 5 3 5 4 3 3 4 3 4 3 2 2 3 1 3 0 5 3 2 2 1 0 2 3 4 3
15 15 17 16 14 16 17 15 16 17 19 18 17 16 16 15 17 18 18 18 17 16 15 15 14 12 13 13 12 11 10 9 9 8 8 9 9 9 9 8 8 8 7 8 7 7 8 9 7 7 6 7 6 5 5 5 5 5 3 3 5 3 5 5 4 4 5 3 4 3 2 3 2 3 5 1 1 1 1 1 0 1 2 4 3
16 16 15 16 16 16 17 17 16 17 18 19 18 17 18 17 18 19 18 17 17 17 16 16 14 14 14 14 13 12 12 12 11 11 12 10 10 9 8 8 8 8 8 8 8 7 8 9 9 8 8 7 7 6 5 5 5 5 5 4 5 4 4 6 5 4 4 4 4 4 4 4 3 1 2 1 2 2 1 2 3 3 2 3 3
16 16 15 16 17 18 20 19 20 20 21 20 19 18 16 16 18 19 18 19 18 17 17 16 16 15 15 15 14 13 13 13 12 12 10 10 9 9 8 9 8 7 9 8 9 9 8 10 9 8 8 8 9 8 7 6 6 6 6 5 5 4 3 5 4 4 4 3 2 3 4 4 4 3 3 2 2 3 3 4 3 3 3 4 3
14 14 13 15 16 17 19 21 23 21 19 19 19 18 16 16 17 20 20 20 19 17 16 15 16 13 13 14 15 14 13 13 12 11 11 11 11 10 10 9 9 8 8 8 9 9 8 8 8 9 8 9 9 9 9 8 7 6 7 6 5 5 4 5 5 4 3 3 4 4 3 3 2 3 3 5 4 5 5 4 4 3 3 4 4
15 14 14 16 20 22 22 23 23 21 19 20 23 21 24 21 18 18 19 18 18 18 17 17 17 14 13 14 15 14 14 13 12 12 12 12 11 11 11 11 11 9 9 10 10 10 9 10 9 9 9 9 9 8 9 7 6 5 5 7 7 6 5 4 4 5 5 5 5 4 3 3 2 3 3 3 3 3 3 4 4 4 3 3 3
15 15 15 17 18 20 20 21 20 20 17 20 22 24 23 21 21 22 21 22 22 20 18 17 15 15 15 16 16 15 16 14 14 13 12 12 11 10 11 10 10 10 10 11 12 12 11 11 11 10 10 10 9 8 8 7 7 7 5 6 5 8 7 5 4 4 5 5 4 3 3 3 4 5 4 4 4 3 4 4 4 4 5 4 5
14 14 16 16 14 16 19 17 16 18 22 24 23 22 23 23 22 22 22 22 23 21 18 16 15 15 17 17 17 16 15 14 14 14 13 12 12 11 11 10 11 11 11 12 13 11 11 11 11 10 9 9 9 9 9 8 8 8 8 6 5 6 8 7 5 5 5 3 3 4 4 4 3 4 3 3 4 4 4 4 4 5 5 5 5
16 15 13 11 7 9 14 17 19 20 19 21 21 22 23 24 23 22 23 23 23 22 18 15 15 16 17 17 16 16 16 16 16 14 15 15 13 12 11 12 11 11 11 11 12 12 12 12 11 10 9 9 10 10 9 9 10 10 10 7 7 6 7 7 7 6 6 4 4 4 4 4 4 4 3 3 3 4 4 4 4 3 4 4 3
16 13 15 14 16 15 13 15 17 17 16 20 19 19 20 21 22 22 24 24 23 21 19 16 16 17 18 17 17 16 17 18 18 15 17 17 16 14 12 13 12 11 12 11 12 12 12 12 11 10 9 9 12 11 10 10 11 11 9 8 7 7 6 7 7 7 6 5 5 4 5 6 5 5 4 4 4 4 4 4 4 4 4 4 3
14 15 15 14 14 14 15 16 17 16 15 16 17 18 19 19 21 22 22 23 22 18 18 18 18 20 19 17 18 17 17 18 18 16 19 19 17 16 14 15 13 13 13 12 11 11 11 12 12 12 13 11 12 12 11 11 10 10 10 9 8 8 7 7 7 6 6 6 6 7 7 6 5 5 5 5 5 5 5 4 4 4 5 4 4
12 13 15 16 16 13 13 14 14 16 16 15 17 17 18 18 20 21 21 21 21 19 20 19 20 19 17 19 17 17 17 19 19 17 19 18 16 14 14 14 14 15 14 14 14 12 12 13 13 13 13 12 11 11 12 11 11 11 10 10 9 8 8 7 7 7 6 6 5 5 5 5 5 6 6 5 5 6 5 5 5 5 4 4 5
14 13 12 11 10 13 16 16 15 17 16 15 18 18 18 16 18 20 18 18 17 16 16 18 19 20 17 17 17 17 16 18 15 15 14 15 16 17 17 16 15 15 15 15 15 14 13 13 13 11 12 12 12 12 12 11 10 11 10 10 10 9 7 7 6 7 7 7 7 6 6 7 7 7 6 6 5 5 5 5 5 5 5 5 5
10 10 11 12 11 10 13 15 15 15 16 16 17 18 17 16 17 18 18 19 16 16 16 17 17 17 16 17 17 16 16 15 15 14 14 13 14 13 13 13 13 15 16 15 15 15 13 13 13 12 12 12 12 11 11 11 11 10 10 10 9 9 9 8 8 8 8 8 8 8 8 8 8 7 7 6 7 6 4 5 5 5 5 6 5
13 12 11 12 11 9 11 13 14 15 16 16 16 16 15 14 15 16 17 18 15 15 15 16 17 15 15 15 15 14 14 14 14 13 13 13 13 12 12 14 14 14 13 16 15 15 14 14 14 13 13 12 12 12 11 12 12 11 11 12 12 11 10 9 9 9 8 8 7 7 7 7 7 9 13 12 10 8 6 6 5 5 5 6 5
11 10 11 11 11 9 10 12 12 14 15 15 14 15 16 16 16 16 15 15 14 15 15 16 17 15 13 14 14 13 13 13 13 14 14 13 12 12 12 13 15 14 12 12 13 14 14 15 15 14 13 12 11 10 13 17 14 11 12 10 10 9 8 7 7 6 6 6 7 7 7 11 13 13 10 12 13 13 12 8 6 4 5 4 5
9 7 8 10 11 11 11 12 13 14 15 15 14 14 14 17 16 18 16 15 15 15 15 15 16 14 13 13 13 13 12 13 14 12 12 12 12 11 10 11 12 13 13 12 13 15 14 14 15 15 15 12 11 11 18 18 19 17 11 9 9 9 8 8 8 6 6 6 5 6 6 7 8 7 7 11 12 13 12 12 12 11 8 6 5
16 15 14 13 13 14 14 14 15 15 14 14 13 13 13 16 16 17 16 15 14 16 16 15 14 13 13 13 12 12 12 12 11 12 11 11 10 10 10 10 11 13 12 11 13 14 13 13 13 14 14 13 11 14 18 18 17 17 15 10 9 8 8 7 7 6 5 5 5 6 5 4 4 4 4 6 10 13 14 14 13 12 12 12 11
14 16 15 15 16 15 15 16 15 14 14 16 15 14 15 15 14 14 13 14 14 15 15 14 13 14 13 13 12 12 12 11 11 10 10 10 10 10 10 10 11 10 9 9 10 12 13 12 12 13 14 13 11 14 18 18 15 16 16 13 9 8 7 8 7 7 5 5 5 5 5 5 4 5 3 3 3 6 10 13 13 13 12 11 12
8 14 17 15 14 12 14 16 16 17 20 17 15 15 14 13 11 11 13 13 12 13 14 14 13 13 13 13 12 12 12 11 11 10 9 9 10 11 9 8 8 7 7 7 9 11 11 11 11 11 11 10 10 14 19 17 17 17 15 8 5 5 6 5 4 4 5 5 5 5 5 5 4 4 4 4 4 4 4 6 7 5 5 8 8
6 5 13 14 14 14 15 15 17 18 15 14 13 12 12 13 12 13 13 11 11 13 13 13 13 12 12 13 12 12 12 11 11 10 10 9 9 8 7 8 8 9 10 9 9 10 10 10 11 10 10 11 8 17 19 20 19 16 14 9 5 5 3 2 4 5 3 2 2 4 3 4 3 3 3 4 4 4 4 5 4 3 3 1 2
9 8 6 16 15 15 16 16 15 14 16 17 16 17 17 15 14 13 12 11 10 12 13 13 13 13 13 13 13 12 11 10 10 9 9 9 8 8 9 8 8 8 9 9 8 8 9 10 10 11 10 11 8 18 20 19 17 14 13 8 8 6 4 6 6 2 2 5 4 6 6 4 5 5 6 7 3 1 1 2 3 2 4 5 7
14 13 10 13 16 16 16 14 14 16 17 17 17 17 16 17 18 15 13 12 11 13 13 13 13 14 14 12 11 11 11 10 10 9 9 9 8 8 8 7 7 7 8 9 9 9 8 9 10 9 9 8 8 15 17 15 14 18 15 8 7 7 6 5 3 6 4 3 4 2 9 9 9 8 4 7 6 3 2 4 5 6 6 6 7
14 12 14 11 16 16 15 17 17 16 17 16 17 17 15 16 16 16 16 13 13 13 12 12 13 13 11 11 10 11 10 9 9 10 9 7 6 5 6 6 7 7 9 10 9 8 8 9 9 10 10 9 8 13 20 19 22 18 14 10 8 7 5 3 3 4 2 1 7 7 1 4 9 12 7 8 6 4 3 4 5 5 5 6 5
18 16 19 15 15 16 16 17 16 17 16 16 17 18 18 15 15 18 17 13 13 13 12 12 12 11 10 10 9 9 9 9 9 9 9 9 8 6 6 6 7 7 7 7 8 8 7 7 7 8 10 10 10 12 20 18 15 17 13 7 7 6 7 6 4 4 3 4 3 4 6 11 13 14 9 8 8 6 4 4 4 4 5 5 4
12 13 6 13 15 16 16 16 16 16 17 17 18 17 17 15 15 15 15 14 13 13 12 11 11 10 9 9 9 10 10 9 9 8 7 7 7 7 8 8 8 7 7 7 6 6 7 6 7 6 6 8 12 8 12 16 16 13 12 6 6 6 5 4 4 5 4 3 4 4 6 16 19 21 13 11 10 8 5 3 3 3 4 4 3
14 11 13 8 10 13 15 17 15 15 15 16 16 15 14 13 13 13 14 14 14 13 13 13 12 12 12 12 10 10 10 9 8 7 6 6 6 6 6 7 8 7 5 5 6 5 6 6 6 8 7 7 10 11 11 16 15 15 13 4 5 6 7 6 6 4 4 5 6 5 6 13 19 18 13 10 9 8 5 3 3 4 2 1 1
16 13 15 11 12 12 13 14 11 14 15 15 15 14 14 14 13 13 14 14 14 13 12 11 11 11 11 10 9 8 7 6 7 7 6 5 5 5 5 6 6 5 7 7 6 7 6 6 6 8 8 9 8 11 9 12 15 16 14 9 5 6 6 7 6 5 5 7 6 5 7 6 7 7 5 6 6 6 4 3 2 5 5 1 1
6 12 13 15 12 13 15 13 13 13 14 13 14 15 14 14 14 14 13 14 14 14 13 12 12 12 12 11 10 11 9 7 7 7 7 6 5 4 4 6 6 7 8 7 7 7 8 8 7 6 6 6 7 9 14 11 14 15 15 16 14 8 10 7 7 8 9 7 5 5 2 5 6 8 8 7 7 6 5 4 5 5 4 2 3
4 6 9 11 11 10 11 11 12 12 12 13 15 16 15 15 15 14 14 15 14 14 13 13 12 11 11 11 10 11 8 7 7 7 6 6 5 5 6 6 6 7 7 7 6 7 6 7 6 6 6 8 9 8 12 17 13 14 15 16 15 12 11 6 5 5 4 4 4 1 5 7 8 8 7 7 6 7 3 3 4 4 4 3 3
6 7 7 7 9 10 11 12 10 12 11 13 14 16 16 16 14 14 15 15 15 14 13 12 11 11 10 11 10 9 8 7 7 7 6 7 7 5 6 6 6 6 6 6 6 6 6 6 7 7 8 8 8 9 7 8 12 12 14 16 13 10 8 7 2 2 3 2 7 10 9 7 7 6 6 6 5 7 4 5 5 5 5 3 4
2 5 8 9 8 11 12 12 12 13 12 12 13 15 16 15 14 14 14 14 14 13 12 12 12 11 11 11 10 10 8 7 7 6 6 6 6 7 6 5 5 5 5 6 6 6 6 6 7 7 8 8 8 7 7 7 8 10 10 11 12 11 8 7 5 1 7 8 8 8 9 8 7 6 4 4 5 6 9 9 7 6 4 4 4
20 25 19 1 11 12 12 13 14 13 13 13 15 13 14 13 13 13 13 13 13 13 12 11 11 10 10 9 9 7 7 7 6 6 6 5 5 4 5 6 5 5 5 5 4 5 6 7 8 8 8 8 7 6 5 5 4 5 4 4 5 5 7 7 4 5 6 3 5 6 5 8 6 10 10 3 4 6 5 4 5 5 5 5 4
11 8 11 13 10 7 8 10 9 8 11 13 14 15 15 14 14 15 14 12 11 11 11 11 11 9 8 7 7 11 9 6 5 6 5 4 3 2 4 4 3 4 6 6 6 6 7 8 9 9 9 8 7 7 7 8 8 7 6 5 5 4 5 4 4 4 5 7 6 6 6 5 5 6 6 5 5 5 6 5 6 6 5 4 5
9 6 4 2 6 8 8 9 10 8 10 13 15 15 16 16 14 14 12 12 11 11 11 11 9 8 7 7 7 7 8 8 8 8 8 7 5 5 5 5 6 5 1 6 6 6 6 6 8 8 9 8 7 8 10 8 8 8 7 7 6 6 5 4 6 4 7 8 6 6 7 8 8 8 8 6 5 5 4 4 4 3 5 7 6
7 5 6 1 6 12 10 11 11 10 11 13 15 14 14 14 13 13 12 12 12 11 11 11 9 9 10 8 7 8 9 8 8 7 7 8 12 13 11 6 4 8 8 7 7 5 6 8 7 5 4 9 10 8 7 10 10 11 10 7 4 5 3 4 7 4 1 3 7 8 9 9 8 7 5 3 5 4 5 4 4 3 2 3 2
8 10 8 6 5 9 11 11 10 9 11 12 12 13 12 13 11 11 12 11 11 10 9 10 11 11 10 9 9 9 8 8 8 8 7 8 7 9 15 16 11 9 9 10 12 11 11 11 9 6 6 12 11 11 11 11 12 12 12 11 10 8 8 8 6 2 2 3 4 5 6 5 5 5 4 6 4 4 4 4 4 3 4 5 3
Wind_Direction
181 185 193 183 186 175 183 177 183 177 182 171 169 170 177 177 164 176 165 175 157 168 177 181 180 179 190 192 195 186 196 203 198 211 196 217 147 142 153 159 162 181 189 192 202 178 142 166 133 240 188 103 99 36 63 37 37 38 284 224 273 307 283 210 56 345 303 323 265 225 124 129 108 220 311 255 211 111 93 133 225 121 145 118 100
181 180 194 185 186 180 184 173 182 176 181 173 175 169 174 179 169 173 172 178 167 172 174 185 183 184 183 188 191 192 191 200 201 203 216 184 151 141 165 149 164 168 204 191 193 157 146 106 122 187 14 100 69 80 69 81 52 251 358 283 189 263 293 9 44 353 285 267 330 31 110 114 316 228 234 220 199 118 163 167 182 102 52 64 41
188 181 188 191 186 182 181 178 182 185 180 178 173 168 171 183 174 169 178 180 176 171 174 186 184 182 181 184 190 192 190 202 210 196 204 199 169 166 167 165 176 182 178 191 161 160 156 138 174 136 215 115 169 185 128 122 205 287 256 45 3 237 212 42 80 25 341 351 320 105 297 104 296 275 283 150 11 91 57 51 11 68 39 55 8
194 184 187 193 188 185 175 180 180 184 178 181 176 176 173 183 179 170 178 183 183 174 176 182 185 180 182 182 182 203 182 193 203 191 184 184 182 178 165 172 174 171 182 171 166 145 154 159 181 150 115 115 71 85 147 233 97 118 245 169 163 298 253 178 107 71 48 354 24 338 304 179 99 299 288 342 356 188 89 80 49 64 64 18 14
195 194 185 191 190 189 175 179 183 185 180 184 179 180 179 183 181 174 174 182 183 175 173 177 179 183 180 191 185 185 199 185 174 207 195 194 191 181 176 180 184 181 171 155 173 150 154 179 145 135 142 138 108 76 65 256 162 204 128 46 340 314 339 64 80 78 79 39 27 323 356 43 8 356 34 318 334 323 87 102 110 90 79 51 73
190 199 187 189 194 188 174 177 185 185 182 183 182 182 178 179 180 176 174 178 182 178 173 174 181 181 175 181 180 185 194 186 190 193 198 190 205 194 176 179 171 183 166 162 174 138 158 179 152 131 152 147 118 154 184 332 23 290 135 209 188 13 5 330 105 53 86 21 194 151 154 99 351 325 311 329 315 358 69 74 89 99 128 153 201
192 201 198 192 190 191 178 176 186 189 184 180 183 182 178 176 181 178 178 176 180 179 174 174 176 182 184 183 187 184 189 195 189 199 194 183 193 198 184 161 158 177 171 165 168 134 167 166 157 145 142 118 121 115 96 195 193 245 133 102 70 61 309 321 10 154 63 232 86 274 108 54 98 336 14 314 10 325 360 131 204 138 140 156 143
194 196 202 198 186 192 191 179 184 192 185 181 183 180 178 176 178 180 179 178 178 177 177 177 178 180 183 186 187 189 190 188 189 194 187 191 186 205 144 144 154 168 165 159 155 155 172 157 152 156 144 133 134 170 217 212 205 138 45 79 70 42 349 2 349 317 158 162 98 5 40 68 221 88 67 7 171 292 302 288 218 133 143 177 154
195 194 199 199 187 187 189 180 185 191 187 182 182 182 178 176 177 178 181 178 179 178 176 180 181 182 184 186 185 187 190 182 178 187 189 203 192 154 138 145 152 160 171 141 157 179 150 159 140 135 138 144 141 186 224 139 70 87 83 94 103 74 342 354 342 0 2 54 355 48 104 329 221 179 221 195 152 24 310 216 294 91 172 101 57
193 200 196 198 195 188 190 183 183 191 188 183 181 180 177 176 177 179 182 181 178 178 178 178 186 182 186 187 185 183 185 187 182 180 197 182 172 158 143 139 147 154 159 170 173 162 146 132 137 153 148 186 143 227 195 129 135 208 147 175 168 159 48 349 283 20 49 11 48 4 324 202 314 233 101 273 171 95 232 305 276 182 91 59 17
193 196 189 189 196 192 187 190 182 186 190 180 181 182 178 180 179 180 183 181 178 180 177 180 184 188 189 186 187 183 183 184 184 181 182 162 177 166 158 148 154 159 174 169 141 156 150 146 163 160 167 170 161 209 245 141 157 190 178 177 147 166 145 240 265 44 104 70 208 85 326 309 347 8 8 55 14 357 336 309 343 21 337 65 39
188 195 194 176 183 196 191 191 183 184 190 182 186 180 181 181 180 181 182 182 180 179 180 180 184 189 189 188 188 187 181 184 189 189 170 165 177 172 161 157 167 160 188 152 162 167 162 152 170 156 172 164 178 190 223 174 178 170 174 135 127 210 176 211 176 215 184 208 224 163 202 261 264 281 0 13 120 68 42 322 313 300 72 101 106
186 184 184 168 183 192 195 187 181 183 188 187 187 188 182 179 181 181 183 182 181 178 180 183 184 188 188 187 188 187 183 187 184 191 165 168 172 177 167 165 169 171 178 153 180 173 150 154 177 163 162 187 170 176 200 197 264 147 176 144 164 180 188 164 188 273 220 236 207 235 183 217 229 136 57 334 12 83 56 298 283 355 338 325 242
197 189 193 189 186 193 194 186 183 182 185 187 186 189 184 179 179 183 182 182 180 178 179 183 187 187 187 185 186 182 187 186 186 187 174 167 173 180 174 171 170 177 177 172 181 168 151 158 171 175 160 182 176 166 182 196 179 200 149 147 175 167 160 190 194 236 209 244 337 342 311 179 280 131 144 114 290 273 166 230 314 345 310 290 273
195 183 187 194 192 192 192 187 183 182 184 188 187 187 183 180 180 182 183 182 180 179 179 185 186 187 185 187 183 183 186 187 187 185 179 173 175 181 177 173 173 179 176 179 178 151 156 160 168 184 173 172 191 171 174 176 164 204 159 157 188 155 170 174 203 252 231 209 223 212 290 313 60 12 8 168 190 252 298 6 42 307 305 295 296
199 189 187 190 190 189 189 188 183 184 184 188 189 185 184 183 179 182 184 182 182 179 181 185 187 186 185 185 185 183 185 187 187 185 184 177 175 184 180 176 177 173 177 166 174 156 157 158 171 184 178 179 177 181 178 175 173 180 181 175 181 177 177 175 189 224 243 226 208 203 193 249 236 181 214 138 131 135 215 71 87 210 281 294 299
192 192 189 189 196 197 190 188 183 184 183 190 189 186 185 181 180 181 183 183 184 182 182 185 186 186 187 185 185 184 186 189 190 188 188 179 181 183 179 184 184 170 171 161 165 162 157 162 174 183 183 178 175 180 181 182 178 177 188 186 192 208 170 172 180 212 230 232 199 205 195 201 240 292 15 267 195 205 206 198 204 230 219 253 283
188 191 190 190 197 192 187 189 192 187 189 188 188 187 185 183 181 179 182 185 185 184 185 185 186 187 186 186 186 188 188 191 192 189 188 185 185 180 182 183 191 169 168 167 164 165 165 172 172 185 182 181 179 178 184 190 178 181 193 194 193 204 186 163 182 199 210 236 225 214 184 193 200 206 198 209 207 207 213 210 217 211 200 225 250
183 191 186 189 200 192 186 193 195 192 188 187 186 185 185 184 183 183 185 186 186 186 186 186 187 187 186 184 186 190 191 192 191 187 187 187 188 183 187 183 183 178 169 164 162 167 170 176 177 186 182 183 180 181 184 187 183 181 191 193 196 190 197 169 173 188 224 221 213 219 201 206 210 213 211 197 203 195 199 208 220 211 211 209 235
183 187 191 195 202 201 193 192 196 192 186 187 188 189 191 188 182 184 186 186 187 188 185 188 188 187 183 183 188 190 190 192 189 187 187 190 189 187 187 183 183 178 174 162 164 171 173 181 184 189 188 186 183 186 184 183 180 182 193 199 194 182 186 189 182 184 209 213 205 205 208 207 201 211 224 225 222 213 207 195 199 218 233 226 214
178 185 189 195 199 202 198 195 197 195 186 189 192 193 193 191 188 186 185 188 190 190 189 190 186 185 181 185 188 190 192 191 191 189 189 188 189 188 186 187 174 183 172 168 172 176 179 182 187 189 191 186 182 185 181 178 179 183 200 208 198 183 182 184 195 210 211 214 192 191 202 201 198 210 208 212 221 220 207 207 201 198 208 210 211
184 181 187 194 187 190 198 193 195 196 194 194 193 192 192 192 190 189 189 190 192 192 191 188 185 184 186 186 189 191 192 191 192 191 192 187 187 190 184 184 180 181 174 174 176 178 178 180 188 189 191 181 178 183 180 175 179 182 204 201 212 189 181 179 183 207 226 220 191 198 215 222 216 221 215 218 218 233 222 219 212 205 213 221 209
181 176 186 182 184 201 198 190 193 198 194 193 192 193 192 192 190 189 188 191 193 193 189 185 185 187 188 187 187 190 191 192 193 192 194 190 188 187 184 188 183 181 176 177 177 179 177 180 185 185 185 180 177 184 184 176 179 186 195 197 204 210 182 179 184 198 207 201 211 212 216 219 219 227 224 226 233 236 232 231 238 224 225 224 225
172 170 178 179 188 194 196 189 192 197 192 189 192 192 192 191 191 189 191 190 193 192 187 182 186 189 189 187 189 190 190 192 194 195 194 195 192 188 185 188 187 181 177 178 179 183 178 176 181 181 187 182 180 183 186 183 183 186 187 194 198 202 196 186 183 195 205 207 213 213 220 224 216 218 219 222 225 233 230 217 223 238 245 242 234
171 175 177 178 187 195 193 188 188 192 192 186 188 192 192 191 191 191 192 192 194 190 186 184 187 190 189 190 190 189 190 192 194 192 194 194 192 191 186 188 187 187 180 178 178 182 177 175 183 181 182 187 184 183 186 188 183 182 185 191 197 196 196 190 194 199 205 205 205 211 217 220 219 224 227 229 225 233 230 224 224 219 224 231 235
173 170 170 180 187 189 185 183 186 188 190 187 187 190 194 192 193 192 191 193 194 190 187 185 187 187 188 190 190 191 191 194 193 194 194 194 194 189 187 186 187 188 182 180 178 181 179 181 186 185 182 180 181 185 189 192 185 179 185 191 196 197 194 192 194 199 210 212 214 213 218 229 230 223 223 224 226 229 226 224 228 230 222 221 226
172 173 172 175 181 184 185 183 184 188 190 187 188 189 194 192 193 195 192 192 189 190 184 184 188 191 188 190 189 192 192 194 190 192 193 193 196 193 190 189 187 190 187 185 183 181 179 183 185 183 179 182 186 188 188 191 189 183 187 190 195 196 194 196 201 205 214 217 217 216 221 222 226 227 228 229 234 237 234 235 225 225 226 227 236
162 159 166 175 187 180 179 185 184 187 190 189 189 190 191 191 193 195 193 192 189 188 185 182 188 190 189 188 191 191 189 192 192 191 192 194 196 194 187 182 185 189 188 189 188 182 178 182 183 183 184 185 189 189 186 191 191 185 184 189 192 193 196 201 205 208 212 218 214 217 222 220 219 218 219 219 222 233 227 234 225 220 222 228 232
161 167 176 181 183 176 180 182 187 185 189 191 189 190 190 192 195 195 195 193 186 184 185 182 186 191 189 188 187 188 190 191 190 188 190 192 193 192 183 179 185 192 194 195 193 185 177 181 181 185 184 184 190 192 187 187 188 187 186 189 192 190 194 196 204 210 212 219 224 227 230 228 222 218 212 212 213 211 218 227 223 217 227 225 226
165 178 181 184 182 182 177 182 182 185 187 190 189 190 192 193 193 191 194 192 182 181 185 183 185 189 184 183 184 185 187 187 188 188 190 190 191 192 189 186 186 190 191 188 180 184 181 181 182 186 188 188 190 190 189 186 189 187 188 189 186 190 193 198 202 211 219 218 228 234 236 229 228 229 221 214 212 216 222 226 225 217 224 224 221
171 173 193 189 190 188 180 181 185 186 187 191 191 192 193 196 194 192 193 191 181 179 184 183 184 183 180 178 180 183 183 187 187 185 186 188 191 192 194 189 186 187 189 178 175 184 186 184 184 186 188 190 191 191 183 183 189 190 187 187 184 186 192 197 202 203 212 219 230 231 234 236 232 223 214 212 215 220 224 231 240 241 233 227 234
184 187 187 191 192 188 187 184 185 187 189 187 187 189 191 200 196 197 193 190 183 180 182 182 178 176 175 175 177 178 180 182 181 181 182 187 189 194 196 189 184 185 191 180 178 182 184 185 187 188 189 192 190 186 177 179 182 185 189 187 187 190 193 195 195 206 213 223 229 238 245 246 243 237 230 215 217 215 218 225 232 237 242 243 237
182 178 182 188 190 191 187 186 185 187 185 190 186 183 192 198 200 196 192 192 184 180 178 175 172 172 170 170 169 173 174 174 177 175 173 178 186 193 197 190 185 182 183 183 182 178 186 188 187 187 191 189 193 173 174 170 178 186 188 188 187 185 187 193 196 203 204 213 218 220 237 243 245 242 244 242 208 215 227 230 231 236 245 245 249
207 178 184 181 190 188 189 185 185 186 190 189 184 188 190 192 197 193 196 196 180 175 173 170 166 168 164 164 166 169 172 172 167 170 172 179 188 194 195 183 173 168 176 180 189 186 187 189 187 187 190 185 195 168 165 166 186 189 190 192 189 179 194 194 200 210 210 214 210 220 220 232 230 236 236 235 243 239 212 216 231 227 232 248 246
232 214 175 179 181 186 183 184 187 188 184 181 183 184 181 187 191 193 198 196 178 165 168 164 161 156 158 163 166 167 167 165 166 172 176 185 189 189 189 185 182 174 179 189 189 195 190 189 185 184 190 188 182 165 153 174 186 185 185 197 202 196 207 230 248 228 233 296 269 251 245 248 244 247 231 241 250 246 240 224 203 197 222 243 264
247 241 210 172 181 182 182 186 183 176 181 182 183 184 188 190 189 191 193 194 173 162 163 158 157 157 160 160 161 159 156 157 162 168 178 186 185 188 194 193 191 183 181 180 187 199 193 192 188 186 191 183 157 156 155 174 176 171 179 198 207 195 194 206 216 114 196 231 239 246 247 248 260 245 245 242 214 133 293 237 185 229 254 246 248
247 246 229 179 181 181 181 174 172 177 177 181 181 183 186 187 190 190 187 182 166 162 162 157 156 161 159 155 152 153 157 162 164 168 181 184 186 186 192 190 193 187 178 179 184 192 189 193 190 179 173 175 140 160 146 164 163 181 188 191 191 192 198 209 188 171 201 240 246 8 15 342 315 291 235 186 193 163 228 228 225 229 230 234 246
249 242 241 201 184 179 167 169 171 178 179 178 177 179 179 184 184 182 180 175 166 160 156 151 159 162 156 158 154 155 158 164 168 171 170 171 182 181 186 180 187 177 184 187 183 188 189 187 186 178 176 168 144 156 158 176 186 180 175 188 184 186 163 201 195 174 161 72 46 45 306 276 267 266 201 191 194 166 197 231 252 256 266 262 262
246 235 234 203 172 165 160 168 170 176 176 173 175 177 179 180 180 180 179 171 163 154 153 157 155 150 153 148 147 154 156 164 168 172 171 171 180 182 185 178 190 191 190 182 184 185 173 173 177 175 165 153 143 167 175 175 176 183 187 180 171 158 151 190 161 106 153 177 173 170 225 247 254 261 200 182 178 176 199 224 243 253 258 264 274
234 260 189 165 156 149 158 164 169 177 174 168 171 175 181 178 176 172 170 162 156 150 146 149 151 149 149 142 152 153 155 164 163 171 171 169 167 179 188 187 195 197 199 188 169 165 158 160 154 133 101 134 144 146 167 171 194 178 182 182 148 130 129 151 145 175 209 223 215 215 230 249 253 257 220 188 180 186 214 218 239 246 247 253 39
233 229 126 138 148 149 160 168 173 172 171 169 170 170 171 169 167 171 160 154 147 146 151 154 150 151 150 152 155 156 155 154 159 168 169 159 160 179 184 171 179 183 151 135 150 147 137 134 155 138 127 131 145 153 182 186 177 168 185 158 134 157 185 164 171 184 195 205 208 215 224 243 244 239 227 191 184 191 198 219 213 239 243 107 306
236 151 153 145 158 154 164 167 163 172 166 162 163 163 160 159 162 161 150 142 141 142 142 143 145 144 144 143 134 125 135 150 154 158 160 163 160 169 169 159 171 152 151 154 151 166 159 152 176 189 158 167 173 168 153 178 166 171 169 163 189 187 171 159 169 177 195 224 230 218 242 237 213 217 198 166 168 174 195 226 176 108 120 178 255
71 142 141 150 150 162 168 169 165 165 158 157 156 153 152 153 155 147 143 138 135 137 135 136 136 140 142 142 138 140 148 158 153 157 154 156 145 150 137 143 144 148 163 170 166 164 170 175 171 158 167 162 153 168 159 160 175 169 172 179 190 177 164 163 183 203 210 217 222 227 118 78 100 112 133 149 162 163 164 222 148 141 142 199 254
155 109 144 150 145 160 164 158 163 153 153 147 148 148 148 150 144 140 135 132 134 133 137 141 144 145 141 135 136 143 152 154 148 146 148 142 139 151 141 151 151 155 164 161 155 163 169 177 169 164 130 133 145 138 155 158 170 176 181 192 197 174 159 181 199 226 219 215 231 159 103 106 103 117 132 154 163 174 203 168 161 161 188 214 241
143 146 140 144 154 162 144 145 145 139 136 138 141 142 140 138 136 131 131 135 135 138 141 142 138 133 133 139 143 151 151 151 145 147 141 135 138 136 137 147 152 151 162 160 164 161 145 133 125 130 122 127 137 148 144 164 169 176 190 195 202 186 151 124 129 246 268 62 87 102 112 108 114 128 143 156 181 212 188 156 164 182 209 243 222
329 164 156 156 147 130 136 129 124 119 122 126 132 132 130 126 128 130 136 135 134 133 133 133 135 139 144 141 142 144 141 128 118 117 120 130 137 144 144 150 152 148 155 162 164 160 149 134 125 120 131 137 146 152 156 168 182 185 199 198 189 186 166 169 188 107 80 107 122 129 136 138 144 161 171 202 217 192 191 193 204 208 225 232 228
27 351 330 114 132 137 127 123 120 123 120 118 115 115 119 125 127 129 129 127 126 128 131 133 134 132 126 130 132 130 117 113 114 103 97 98 103 139 151 164 162 167 162 153 150 155 147 141 138 136 135 144 158 160 155 164 168 183 190 165 183 167 156 152 178 190 167 151 162 167 171 188 199 197 209 191 117 128 149 193 213 214 225 240 230
40 28 343 338 357 23 75 98 100 108 124 117 117 123 126 124 126 130 129 122 119 121 120 120 120 120 124 123 121 126 122 112 86 81 77 88 113 160 170 175 183 180 177 170 176 171 167 158 150 148 148 151 162 169 181 186 191 187 180 171 197 178 174 181 180 199 208 203 184 181 188 198 197 196 208 211 195 185 188 197 207 208 206 224 250
60 43 345 318 84 92 99 108 118 117 111 117 121 121 122 123 126 127 119 110 106 106 110 112 110 114 109 106 107 116 103 96 87 75 67 57 28 357 46 63 33 9 318 183 183 164 167 153 136 147 146 152 167 193 206 197 185 177 162 167 185 188 176 181 201 201 211 203 155 162 194 204 207 205 200 194 180 187 203 218 236 210 203 210 214
39 3 290 54 108 111 104 97 96 106 113 111 110 111 114 113 118 118 118 115 119 124 128 131 136 137 139 136 137 112 104 106 102 102 97 79 64 56 32 36 46 3 9 32 101 138 143 137 127 114 130 170 190 190 125 150 165 171 166 157 104 91 115 150 157 179 273 199 172 196 206 213 211 214 198 184 204 199 196 200 218 260 287 289 274
163 195 200 197 123 93 98 98 100 103 104 101 103 107 106 111 115 121 127 130 132 134 144 147 148 148 146 144 116 109 115 107 111 112 109 105 94 52 49 44 39 25 24 56 83 85 103 123 138 140 61 49 89 112 126 130 127 125 124 118 109 95 82 75 57 67 175 240 269 262 262 269 263 261 219 198 197 201 204 192 195 203 217 224 231